Manistique, MI

3:30 AM EDT on March 26, 2017 (GMT -0400)
Schoolcraft County

Weather History for KISQ - December, 2012

Change the Weather History Date:

Thursday, December 6, 2012

  Actual Average Record
Temperature  
Mean Temperature 37 °F -  
Max Temperature 41 °F 34 °F 53 °F (2008)
Min Temperature 33 °F 20 °F -3 °F (1958)
Degree Days  
Heating Degree Days 28    
Moisture  
Dew Point 34 °F    
Average Humidity 86    
Maximum Humidity 93    
Minimum Humidity 75    
Precipitation  
Precipitation 0.00 in - - ()
Sea Level Pressure  
Sea Level Pressure 29.94 in    
Wind  
Wind Speed 15 mph (SSW)    
Max Wind Speed 23 mph    
Max Gust Speed 34 mph    
Visibility 10 miles    
Events Rain    
Averages and records for this station are not official NWS values.
T = Trace of Precipitation, MM = Missing Value Source: NWS Daily Summary

Daily Weather History Graph

Daily Weather History Graph

Search for Another Location

Airport or City:

Trip Planner

Search our weather history database for the weather conditions in past years. The results will help you decide how hot, cold, wet, or windy it might be!

Date:

Astronomy

Dec. 06, 2012 Rise Set
Actual Time 8:12 AM EST 4:59 PM EST
Civil Twilight 7:37 AM EST 5:33 PM EST
Nautical Twilight 7:00 AM EST 6:11 PM EST
Astronomical Twilight 6:24 AM EST 6:47 PM EST
Moon 12:05 AM EST (12/6) 12:45 PM EST (12/6)
Length of Visible Light 9h 56m
Length of Day
8h 47m
Waning Gibbous, 49% of the Moon is Illuminated
Dec 6
Waning Gibbous
Dec 13
New
Dec 20
First Quarter
Dec 28
Full
Jan 4
Last Quarter

Hourly Weather History & Observations

Time (EST) Temp. Windchill Dew Point Humidity Pressure Visibility Wind Dir Wind Speed Gust Speed Precip Events Conditions
12:15 AM 33.8 °F 23.9 °F 26.6 °F 75% 30.21 in 10.0 mi South 15.0 mph 24.2 mph N/A   Overcast
12:35 AM 35.6 °F 25.9 °F 28.4 °F 75% 30.20 in 10.0 mi South 16.1 mph 23.0 mph N/A   Overcast
12:54 AM 35.6 °F 25.9 °F 28.4 °F 75% 30.19 in 10.0 mi South 16.1 mph 23.0 mph N/A   Overcast
1:15 AM 35.6 °F 26.2 °F 28.4 °F 75% 30.18 in 10.0 mi South 15.0 mph 19.6 mph N/A   Overcast
1:35 AM 35.6 °F 25.9 °F 28.4 °F 75% 30.18 in 10.0 mi South 16.1 mph 23.0 mph N/A   Overcast
1:55 AM 37.4 °F 28.2 °F 30.2 °F 75% 30.17 in 10.0 mi SSW 16.1 mph 23.0 mph N/A   Overcast
2:15 AM 37.4 °F 28.5 °F 30.2 °F 75% 30.16 in 10.0 mi South 15.0 mph 20.7 mph N/A   Overcast
2:35 AM 37.4 °F 27.5 °F 30.2 °F 75% 30.16 in 10.0 mi South 18.4 mph 25.3 mph N/A   Overcast
2:55 AM 37.4 °F 28.5 °F 32.0 °F 81% 30.15 in 10.0 mi South 15.0 mph 24.2 mph N/A   Overcast
3:14 AM 37.4 °F 28.5 °F 32.0 °F 81% 30.15 in 10.0 mi South 15.0 mph 20.7 mph N/A   Overcast
3:35 AM 37.4 °F 28.2 °F 32.0 °F 81% 30.14 in 10.0 mi South 16.1 mph 21.9 mph N/A   Overcast
3:55 AM 37.4 °F 27.8 °F 33.8 °F 87% 30.13 in 10.0 mi SSW 17.3 mph 24.2 mph N/A   Overcast
4:14 AM 37.4 °F 27.8 °F 32.0 °F 81% 30.12 in 10.0 mi South 17.3 mph 24.2 mph N/A   Overcast
4:35 AM 37.4 °F 28.2 °F 32.0 °F 81% 30.11 in 10.0 mi South 16.1 mph 23.0 mph N/A   Overcast
4:55 AM 37.4 °F 28.9 °F 33.8 °F 87% 30.10 in 10.0 mi South 13.8 mph 21.9 mph N/A   Overcast
5:14 AM 37.4 °F 28.5 °F 33.8 °F 87% 30.10 in 10.0 mi South 15.0 mph 21.9 mph N/A   Overcast
5:35 AM 37.4 °F 28.9 °F 33.8 °F 87% 30.09 in 10.0 mi South 13.8 mph 21.9 mph N/A   Overcast
5:54 AM 37.4 °F 27.5 °F 33.8 °F 87% 30.09 in 10.0 mi South 18.4 mph 24.2 mph N/A   Overcast
6:15 AM 37.4 °F 28.5 °F 33.8 °F 87% 30.08 in 10.0 mi South 15.0 mph 24.2 mph N/A   Overcast
6:35 AM 37.4 °F 28.9 °F 33.8 °F 87% 30.06 in 10.0 mi South 13.8 mph 23.0 mph N/A   Overcast
6:54 AM 37.4 °F 27.5 °F 33.8 °F 87% 30.06 in 10.0 mi South 18.4 mph 23.0 mph N/A   Overcast
7:15 AM 37.4 °F 28.2 °F 33.8 °F 87% 30.04 in 10.0 mi South 16.1 mph 27.6 mph N/A   Overcast
7:35 AM 37.4 °F 28.5 °F 33.8 °F 87% 30.04 in 10.0 mi South 15.0 mph 26.5 mph N/A   Overcast
7:55 AM 37.4 °F 27.2 °F 33.8 °F 87% 30.03 in 10.0 mi South 19.6 mph 26.5 mph N/A   Overcast
8:15 AM 37.4 °F 27.8 °F 33.8 °F 87% 30.02 in 10.0 mi South 17.3 mph 25.3 mph N/A   Overcast
8:34 AM 37.4 °F 26.9 °F 33.8 °F 87% 30.02 in 10.0 mi South 20.7 mph 27.6 mph N/A   Overcast
8:55 AM 37.4 °F 27.5 °F 33.8 °F 87% 30.01 in 10.0 mi South 18.4 mph 27.6 mph N/A   Drizzle
9:15 AM 37.4 °F 27.8 °F 33.8 °F 87% 29.99 in 10.0 mi South 17.3 mph 26.5 mph N/A Rain Rain
9:34 AM 37.4 °F 27.8 °F 33.8 °F 87% 29.98 in 10.0 mi South 17.3 mph 24.2 mph N/A Rain Rain
9:55 AM 37.4 °F 26.4 °F 35.6 °F 93% 29.98 in 10.0 mi South 23.0 mph 29.9 mph N/A   Light Drizzle
10:14 AM 37.4 °F 26.6 °F 35.6 °F 93% 29.97 in 10.0 mi South 21.9 mph 27.6 mph N/A Rain Light Rain
10:35 AM 37.4 °F 26.9 °F 35.6 °F 93% 29.97 in 10.0 mi South 20.7 mph 29.9 mph N/A Rain Light Rain
10:55 AM 37.4 °F 26.6 °F 35.6 °F 93% 29.94 in 7.0 mi South 21.9 mph 29.9 mph N/A   Drizzle
11:14 AM 37.4 °F 26.9 °F 35.6 °F 93% 29.93 in 10.0 mi South 20.7 mph 31.1 mph N/A Rain Rain
11:35 AM 37.4 °F 27.2 °F 33.8 °F 87% 29.92 in 10.0 mi South 19.6 mph 32.2 mph N/A   Light Drizzle
11:55 AM 37.4 °F 26.6 °F 33.8 °F 87% 29.91 in 3.0 mi South 21.9 mph 34.5 mph N/A Rain Light Rain
12:14 PM 37.4 °F 27.2 °F 35.6 °F 93% 29.88 in 10.0 mi South 19.6 mph 27.6 mph N/A Rain Light Rain
12:35 PM 37.4 °F 27.8 °F 35.6 °F 93% 29.88 in 10.0 mi South 17.3 mph 29.9 mph N/A Rain Light Rain
12:54 PM 39.2 °F 30.5 °F 35.6 °F 87% 29.88 in 10.0 mi South 16.1 mph 28.8 mph N/A   Overcast
1:15 PM 39.2 °F 29.3 °F 35.6 °F 87% 29.87 in 10.0 mi SSW 20.7 mph 27.6 mph N/A   Overcast
1:35 PM 39.2 °F 29.6 °F 35.6 °F 87% 29.85 in 10.0 mi South 19.6 mph 25.3 mph N/A   Overcast
1:54 PM 39.2 °F 29.0 °F 35.6 °F 87% 29.84 in 10.0 mi SSW 21.9 mph 28.8 mph N/A   Drizzle
2:15 PM 39.2 °F 30.2 °F 35.6 °F 87% 29.83 in 10.0 mi South 17.3 mph 27.6 mph N/A   Light Drizzle
2:35 PM 39.2 °F 29.8 °F 37.4 °F 93% 29.82 in 10.0 mi South 18.4 mph 24.2 mph N/A   Light Drizzle
2:55 PM 41.0 °F 31.9 °F 37.4 °F 87% 29.82 in 10.0 mi South 19.6 mph 24.2 mph N/A   Overcast
3:15 PM 41.0 °F 32.5 °F 37.4 °F 87% 29.82 in 10.0 mi SSW 17.3 mph 25.3 mph N/A   Overcast
3:35 PM 41.0 °F 33.5 °F 37.4 °F 87% 29.82 in 10.0 mi SSW 13.8 mph 21.9 mph N/A   Overcast
3:55 PM 41.0 °F 33.5 °F 37.4 °F 87% 29.82 in 10.0 mi SSW 13.8 mph 19.6 mph N/A   Overcast
4:14 PM 41.0 °F 32.2 °F 37.4 °F 87% 29.81 in 10.0 mi SSW 18.4 mph 21.9 mph N/A   Overcast
4:35 PM 41.0 °F 33.1 °F 37.4 °F 87% 29.81 in 10.0 mi SSW 15.0 mph 21.9 mph N/A   Overcast
4:55 PM 41.0 °F 33.5 °F 37.4 °F 87% 29.81 in 10.0 mi SSW 13.8 mph 20.7 mph N/A   Overcast
5:14 PM 41.0 °F 34.3 °F 37.4 °F 87% 29.80 in 10.0 mi SSW 11.5 mph 21.9 mph N/A   Overcast
5:35 PM 41.0 °F 32.8 °F 37.4 °F 87% 29.79 in 10.0 mi SSW 16.1 mph 21.9 mph N/A   Overcast
5:55 PM 41.0 °F 33.5 °F 37.4 °F 87% 29.79 in 10.0 mi SSW 13.8 mph 19.6 mph N/A   Overcast
6:15 PM 41.0 °F 33.5 °F 37.4 °F 87% 29.80 in 10.0 mi SW 13.8 mph 21.9 mph N/A   Overcast
6:35 PM 41.0 °F 34.3 °F 37.4 °F 87% 29.80 in 10.0 mi SW 11.5 mph - N/A   Overcast
6:54 PM 41.0 °F 33.9 °F 35.6 °F 81% 29.80 in 10.0 mi SW 12.7 mph 18.4 mph N/A   Overcast
7:15 PM 41.0 °F 35.2 °F 35.6 °F 81% 29.80 in 10.0 mi SW 9.2 mph 19.6 mph N/A   Overcast
7:35 PM 39.2 °F 35.0 °F 35.6 °F 87% 29.80 in 10.0 mi SW 5.8 mph - N/A   Overcast
7:54 PM 39.2 °F 34.2 °F 35.6 °F 87% 29.81 in 10.0 mi WSW 6.9 mph - N/A   Overcast
8:15 PM 39.2 °F 35.0 °F 35.6 °F 87% 29.81 in 10.0 mi SW 5.8 mph - N/A   Overcast
8:35 PM 39.2 °F 33.6 °F 35.6 °F 87% 29.80 in 10.0 mi SW 8.1 mph - N/A   Overcast
8:55 PM 39.2 °F 35.0 °F 35.6 °F 87% 29.80 in 10.0 mi SW 5.8 mph - N/A   Overcast
9:15 PM 39.2 °F 33.6 °F 35.6 °F 87% 29.79 in 10.0 mi SSW 8.1 mph - N/A   Overcast
9:34 PM 39.2 °F 33.6 °F 35.6 °F 87% 29.79 in 10.0 mi SW 8.1 mph - N/A   Overcast
9:55 PM 39.2 °F 35.0 °F 35.6 °F 87% 29.80 in 10.0 mi WSW 5.8 mph - N/A   Overcast
10:15 PM 39.2 °F 37.0 °F 35.6 °F 87% 29.80 in 10.0 mi WSW 3.5 mph - N/A   Overcast
10:34 PM 39.2 °F 34.2 °F 35.6 °F 87% 29.81 in 10.0 mi WSW 6.9 mph - N/A   Overcast
10:55 PM 39.2 °F 35.0 °F 35.6 °F 87% 29.81 in 10.0 mi West 5.8 mph - N/A   Overcast
11:15 PM 39.2 °F 35.9 °F 35.6 °F 87% 29.81 in 10.0 mi West 4.6 mph - N/A   Overcast
11:34 PM 39.2 °F 33.6 °F 35.6 °F 87% 29.82 in 7.0 mi West 8.1 mph - N/A   Overcast
11:55 PM 39.2 °F 35.0 °F 35.6 °F 87% 29.82 in 10.0 mi West 5.8 mph - N/A   Overcast